FW6766 Weather Reports


Display with metric or nautical units.
time (UTC)temp
F
wind
direction
speed
MPH
gust
MPH
rain 1hr
in
rain 24hr
in
rain mn
in
humidity
%
barometer
mb
20260507103015 62 0.0 0.0 0.05 1.85 0.59 96 1010.9
20260507102015 62 0.0 0.0 0.05 1.85 0.59 96 1010.7
20260507101016 62 0.0 0.0 0.04 1.84 0.58 96 1010.7
20260507100015 62 0.0 0.0 0.02 1.82 0.56 96 1010.9
20260507095015 62 0.0 0.0 0.01 1.81 0.55 96 1011.0
20260507094015 62 0.0 0.0 0.00 1.80 0.54 96 1011.4
20260507093035 62 0.0 0.0 0.00 1.80 0.54 96 1011.5
20260507092017 63 0.0 0.0 0.00 1.80 0.54 96 1011.6
20260507091017 63 0.0 0.0 0.00 1.80 0.54 96 1011.5
20260507090038 63 0.0 0.0 0.01 1.80 0.54 96 1011.4
20260507085037 63 0.0 0.0 0.02 1.80 0.54 96 1011.9
20260507084017 63 0.0 0.0 0.03 1.80 0.54 96 1012.3
20260507083017 63 0.0 0.0 0.04 1.80 0.54 96 1012.1
20260507082017 63 0.0 0.0 0.04 1.80 0.54 96 1012.1
20260507081017 63 0.0 0.0 0.04 1.80 0.54 96 1012.1
20260507080018 63 0.0 0.0 0.03 1.79 0.53 96 1012.2
20260507075017 63 0.0 0.0 0.02 1.78 0.52 96 1012.1
20260507074017 63 0.0 0.0 0.01 1.77 0.51 96 1012.1
20260507073017 63 0.0 0.0 0.00 1.76 0.50 96 1012.6
20260507072037 63 0.0 0.0 0.01 1.76 0.50 96 1013.0
20260507071017 63 0.0 0.0 0.02 1.76 0.50 96 1012.9
20260507070018 63 0.0 0.0 0.03 1.76 0.50 96 1012.6
20260507065017 63 0.0 4.0 0.04 1.76 0.50 95 1012.5
20260507064017 63 0.0 3.0 0.05 1.76 0.50 96 1012.5
20260507063017 63 0.0 0.0 0.06 1.76 0.50 95 1013.1
20260507062017 63 0.0 0.0 0.06 1.75 0.49 95 1013.7
20260507061016 63 0.0 0.0 0.07 1.74 0.48 95 1013.4
20260507060017 63 0.0 0.0 0.08 1.73 0.47 95 1013.8
20260507055038 63 0.0 0.0 0.14 1.72 0.46 96 1013.7
20260507054036 63 0.0 0.0 0.17 1.71 0.45 95 1013.6
20260507053016 63 0.0 0.0 0.23 1.70 0.44 95 1014.0
20260507052017 63 0.0 0.0 0.35 1.69 0.43 95 1014.1
20260507051016 63 0.0 0.0 0.40 1.67 0.41 95 1014.4
20260507050016 63 0.0 0.0 0.39 1.65 0.39 95 1014.3
20260507045016 63 0.0 0.0 0.32 1.58 0.32 95 1014.8
20260507044037 63 0.0 0.0 0.29 1.54 0.28 95 1014.4
20260507043017 63 0.0 2.0 0.23 1.47 0.21 95 1014.3
20260507042016 63 0.0 3.0 0.12 1.34 0.08 95 1014.1
20260507041016 63 0.0 3.0 0.09 1.27 0.01 95 1014.2
20260507040016 63 203 1.0 5.0 0.13 1.26 1.26 95 1014.4
20260507035016 63 203 2.0 5.0 0.17 1.26 1.26 95 1014.1
20260507034017 63 0.0 2.0 0.24 1.25 1.25 95 1013.5
20260507033016 63 0.0 0.0 0.31 1.24 1.24 95 1013.7
20260507032036 63 0.0 0.0 0.34 1.22 1.22 95 1014.4
20260507031016 63 0.0 0.0 0.31 1.18 1.18 95 1014.7
20260507030016 63 0.0 2.0 0.36 1.13 1.13 95 1014.8
20260507025016 63 0.0 0.0 0.35 1.09 1.09 94 1014.7
20260507024016 63 0.0 0.0 0.30 1.01 1.01 94 1014.8
20260507023017 63 0.0 0.0 0.25 0.93 0.93 94 1014.6
20260507022036 64 0.0 0.0 0.24 0.88 0.88 94 1014.2
20260507021016 64 0.0 0.0 0.25 0.87 0.87 94 1014.3
20260507020016 64 0.0 0.0 0.16 0.77 0.77 94 1013.9
20260507015016 64 0 1.0 4.0 0.16 0.74 0.74 93 1013.7
20260507014016 64 45 1.0 2.0 0.13 0.71 0.71 92 1013.5
20260507013036 65 0.0 0.0 0.10 0.68 0.68 91 1014.8
20260507012037 66 0 2.0 10.0 0.06 0.64 0.64 91 1015.0
20260507011016 68 23 1.0 6.0 0.07 0.62 0.62 93 1014.0
20260507010016 68 270 1.0 4.0 0.06 0.61 0.61 94 1014.0
20260507005016 68 0.0 0.0 0.03 0.58 0.58 93 1013.4
20260507004016 68 0.0 0.0 0.06 0.58 0.58 93 1013.6
20260507003017 69 0.0 0.0 0.09 0.58 0.58 93 1013.4
20260507002016 69 0.0 0.0 0.23 0.58 0.58 93 1013.7
20260507001015 69 0.0 0.0 0.54 0.55 0.55 92 1013.4
20260507000016 69 0.0 0.0 0.55 0.55 0.55 92 1013.6
20260506235016 69 0.0 2.0 0.55 0.55 0.55 91 1013.4
20260506234016 69 203 1.0 3.0 0.52 0.52 0.52 90 1013.6
20260506233016 69 158 1.0 2.0 0.49 0.49 0.49 88 1013.4
20260506232016 72 225 3.0 10.0 0.35 0.35 0.35 83 1013.9
20260506231036 76 203 3.0 5.0 0.01 0.01 0.01 77 1013.4
20260506230015 76 180 1.0 4.0 0.00 0.00 0.00 70 1012.4
20260506225036 76 0.0 0.0 0.00 0.00 0.00 70 1012.8
20260506224016 76 0 2.0 5.0 0.00 0.00 0.00 69 1013.3
20260506223015 77 0 1.0 5.0 0.00 0.00 0.00 68 1013.4
20260506222015 77 180 1.0 4.0 0.00 0.00 0.00 67 1013.6
20260506221036 77 203 2.0 3.0 0.00 0.00 0.00 66 1013.4
20260506220015 78 0 1.0 3.0 0.00 0.00 0.00 65 1013.5
20260506215035 78 0 2.0 6.0 0.00 0.00 0.00 64 1013.4
20260506214015 79 180 2.0 6.0 0.00 0.00 0.00 64 1013.4
20260506213016 79 0 3.0 8.0 0.00 0.00 0.00 64 1013.2
20260506212035 79 0 2.0 4.0 0.00 0.00 0.00 64 1013.2
20260506211018 78 0 2.0 11.0 0.00 0.00 0.00 65 1013.2
20260506210017 78 203 3.0 7.0 0.00 0.00 0.00 64 1013.5
20260506205017 79 203 4.0 7.0 0.00 0.00 0.00 62 1013.5
20260506204037 80 180 2.0 5.0 0.00 0.00 0.00 61 1013.6
20260506203017 80 0 3.0 6.0 0.00 0.00 0.00 61 1013.8
20260506202017 80 0 3.0 8.0 0.00 0.00 0.00 62 1014.0
20260506201017 80 0 3.0 8.0 0.00 0.00 0.00 62 1014.0
20260506200018 80 0 4.0 9.0 0.00 0.00 0.00 61 1014.2
20260506195017 79 0 3.0 8.0 0.00 0.00 0.00 63 1014.3
20260506194017 79 0 2.0 4.0 0.00 0.00 0.00 62 1014.6
20260506193017 79 0 2.0 7.0 0.00 0.00 0.00 64 1014.7
20260506192017 78 0 2.0 8.0 0.00 0.00 0.00 64 1015.0
20260506191017 78 0 2.0 4.0 0.00 0.00 0.00 65 1015.2
20260506190018 78 0 2.0 6.0 0.00 0.00 0.00 64 1015.4
20260506185038 78 0 2.0 6.0 0.00 0.00 0.00 64 1015.7
20260506184017 78 0 1.0 3.0 0.00 0.00 0.00 63 1015.8
20260506183017 79 0 2.0 5.0 0.00 0.00 0.00 62 1015.9
20260506182016 80 0 3.0 5.0 0.00 0.00 0.00 59 1016.0
20260506181017 82 225 3.0 6.0 0.00 0.00 0.00 57 1015.9
20260506180016 83 203 3.0 6.0 0.00 0.00 0.00 57 1016.0
20260506175017 82 0 3.0 8.0 0.00 0.00 0.00 57 1015.7
20260506174057 80 0 3.0 5.0 0.00 0.00 0.00 61 1015.8
20260506173017 80 0 2.0 5.0 0.00 0.00 0.00 61 1015.7
20260506172017 79 0 3.0 8.0 0.00 0.00 0.00 61 1015.8
20260506171017 79 0 3.0 6.0 0.00 0.00 0.00 63 1015.7
20260506170016 78 0 3.0 6.0 0.00 0.00 0.00 62 1015.7
20260506165017 78 0 3.0 6.0 0.00 0.00 0.00 64 1015.9
20260506164016 77 0 3.0 5.0 0.00 0.00 0.00 66 1015.9
20260506163016 74 0 4.0 8.0 0.00 0.00 0.00 70 1015.9
20260506162016 74 0 4.0 8.0 0.00 0.00 0.00 71 1015.7
20260506161016 73 0 2.0 5.0 0.00 0.00 0.00 72 1016.3
20260506160016 71 0.0 2.0 0.00 0.00 0.00 74 1016.4
20260506155016 70 0 2.0 4.0 0.00 0.00 0.00 77 1016.6
20260506154017 69 0 1.0 3.0 0.00 0.00 0.00 78 1016.5
20260506153036 69 0 1.0 3.0 0.00 0.00 0.00 79 1016.8
20260506152016 68 0 3.0 6.0 0.00 0.00 0.00 79 1017.1
20260506151016 69 0 2.0 4.0 0.00 0.00 0.00 79 1016.6
20260506150016 69 0 2.0 5.0 0.00 0.00 0.00 76 1017.0
20260506145056 70 0 3.0 6.0 0.00 0.00 0.00 73 1017.0
20260506144016 70 0 2.0 3.0 0.00 0.00 0.00 74 1016.8
20260506143037 70 0 2.0 4.0 0.00 0.00 0.00 73 1016.8
20260506142016 70 0 1.0 3.0 0.00 0.00 0.00 74 1016.7
20260506141016 70 0 2.0 5.0 0.00 0.00 0.00 74 1016.6
20260506140036 70 0.0 0.0 0.00 0.00 0.00 74 1016.1
20260506135016 70 0 3.0 5.0 0.00 0.00 0.00 74 1016.0
20260506134016 69 0 1.0 4.0 0.00 0.00 0.00 75 1015.9
20260506133017 69 0 2.0 4.0 0.00 0.00 0.00 75 1015.8
20260506132016 68 0 2.0 6.0 0.00 0.00 0.00 76 1015.8
20260506131016 68 0 4.0 12.0 0.00 0.00 0.00 76 1015.5
20260506130016 68 0 2.0 5.0 0.00 0.00 0.00 77 1015.6
20260506125016 67 0 2.0 4.0 0.00 0.00 0.00 78 1015.6
20260506124016 67 0 2.0 4.0 0.00 0.00 0.00 78 1015.5
20260506123016 67 0 2.0 6.0 0.00 0.00 0.00 78 1015.6
20260506122016 67 0 2.0 5.0 0.00 0.00 0.00 78 1015.7
20260506121016 66 0 2.0 5.0 0.00 0.00 0.00 78 1015.6
20260506120016 66 0 2.0 5.0 0.00 0.00 0.00 77 1015.5
20260506115056 66 0 2.0 4.0 0.00 0.00 0.00 78 1015.6
20260506114056 66 0 2.0 5.0 0.00 0.00 0.00 77 1015.3
20260506113015 66 0 2.0 4.0 0.00 0.00 0.00 77 1015.2
20260506112016 66 0 3.0 5.0 0.00 0.00 0.00 77 1015.2
20260506111037 66 0 2.0 4.0 0.00 0.00 0.00 78 1015.2
20260506110016 66 0 1.0 4.0 0.00 0.00 0.00 78 1015.3
20260506105015 66 0 2.0 6.0 0.00 0.00 0.00 78 1015.0
20260506104016 66 0 1.0 4.0 0.00 0.00 0.00 79 1015.0